This demonstration page uses our WeatherBlox Daily Observations layout. Learn more.

Left ArrowRight Arrow

Hourly Observations for May 10, 2017

Temp ( °F °C ) Dew Point ( °F °C ) Humidity (%) Winds ( mph kmh ) Pressure ( in mb ) Visibility ( mi km ) Precip ( " mm )
12:15 am 00:15 Clear 46 8 43 6 87 87 N N/A 30.00 1016 10 16 N/A
12:35 am 00:35 Clear 46 8 41 5 82 82 N N/A 30.03 1017 10 16 N/A
12:55 am 00:55 Clear 45 7 41 5 87 87 N N/A 30.03 1017 10 16 N/A
1:15 am 01:15 Clear 45 7 43 6 93 93 N N/A 30.00 1016 10 16 N/A
1:35 am 01:35 Clear 46 8 41 5 82 82 N N/A 30.00 1016 10 16 N/A
1:55 am 01:55 Clear 46 8 41 5 82 82 N N/A 30.00 1016 10 16 N/A
2:15 am 02:15 Clear 45 7 43 6 93 93 N N/A 30.00 1016 10 16 N/A
2:35 am 02:35 Clear 45 7 41 5 87 87 N N/A 30.00 1016 10 16 N/A
2:55 am 02:55 Clear 45 7 43 6 93 93 N N/A 30.00 1016 10 16 N/A
3:15 am 03:15 Clear 43 6 41 5 93 93 N N/A 30.00 1016 10 16 N/A
3:35 am 03:35 Clear 41 5 41 5 100 100 N N/A 30.00 1016 10 16 N/A
3:55 am 03:55 Clear 41 5 41 5 100 100 N N/A 30.00 1016 10 16 N/A
4:15 am 04:15 Clear 41 5 41 5 100 100 N N/A 30.00 1016 10 16 N/A
4:35 am 04:35 Clear 41 5 41 5 100 100 WNW 3 6 30.00 1016 10 16 N/A
4:55 am 04:55 Clear 41 5 41 5 100 100 N N/A 30.00 1016 10 16 N/A
5:15 am 05:15 Clear 43 6 41 5 93 93 N N/A 30.00 1016 10 16 N/A
5:35 am 05:35 Clear 43 6 41 5 93 93 N N/A 30.00 1016 10 16 N/A
5:55 am 05:55 Clear 41 5 41 5 100 100 NNW 3 6 30.00 1016 10 16 N/A
6:15 am 06:15 Sunny 41 5 41 5 100 100 NNW 3 6 30.03 1017 10 16 N/A
6:35 am 06:35 Mostly Cloudy 43 6 41 5 93 93 N N/A 30.03 1017 10 16 N/A
6:55 am 06:55 Cloudy 45 7 43 6 93 93 N N/A 30.06 1018 10 16 N/A
7:15 am 07:15 Cloudy 46 8 43 6 87 87 N N/A 30.06 1018 10 16 N/A
7:35 am 07:35 Cloudy 48 9 43 6 82 82 N N/A 30.06 1018 10 16 N/A
7:55 am 07:55 Cloudy 50 10 43 6 76 76 N N/A 30.03 1017 10 16 N/A
8:15 am 08:15 Cloudy 52 11 43 6 72 72 NNE 7 11 30.03 1017 10 16 N/A
8:35 am 08:35 Cloudy 52 11 43 6 72 72 N 7 11 30.03 1017 10 16 N/A
8:55 am 08:55 Mostly Cloudy 55 13 45 7 67 67 N 8 13 30.03 1017 10 16 N/A
9:15 am 09:15 Partly Cloudy 55 13 43 6 63 63 N 7 11 30.03 1017 10 16 N/A
9:35 am 09:35 Sunny 57 14 43 6 59 59 NNE 6 9 30.03 1017 10 16 N/A
9:55 am 09:55 Sunny 59 15 43 6 55 55 NE 7 11 30.03 1017 10 16 N/A
10:15 am 10:15 Sunny 61 16 45 7 55 55 NE 5 7 30.03 1017 10 16 N/A
10:35 am 10:35 Sunny 61 16 43 6 52 52 NE 6 9 30.03 1017 10 16 N/A
10:55 am 10:55 Partly Cloudy 63 17 45 7 52 52 NNE 3 6 30.03 1017 10 16 N/A
11:15 am 11:15 Partly Cloudy 64 18 46 8 52 52 ENE 3 6 30.03 1017 10 16 N/A
11:35 am 11:35 Partly Cloudy 64 18 45 7 49 49 NNE 3 6 30.03 1017 10 16 N/A
11:55 am 11:55 Partly Cloudy 68 20 46 8 46 46 N N/A 30.03 1017 10 16 N/A
12:15 pm 12:15 Mostly Cloudy 68 20 45 7 43 43 N N/A 30.00 1016 10 16 N/A
12:35 pm 12:35 Partly Cloudy 70 21 45 7 40 40 N 5 7 30.00 1016 10 16 N/A
12:55 pm 12:55 Partly Cloudy 70 21 45 7 40 40 NNE 3 6 30.00 1016 10 16 N/A
1:15 pm 13:15 Sunny 72 22 45 7 38 38 ENE 3 6 30.00 1016 10 16 N/A
1:35 pm 13:35 Sunny 72 22 43 6 36 36 NE 6 9 29.97 1015 10 16 N/A
1:55 pm 13:55 Sunny 73 23 43 6 33 33 N 8 13 29.97 1015 10 16 N/A
2:15 pm 14:15 Sunny 72 22 43 6 36 36 WNW 7 11 29.97 1015 10 16 N/A
2:35 pm 14:35 Sunny 72 22 41 5 33 33 N N/A 29.97 1015 10 16 N/A
2:55 pm 14:55 Sunny 73 23 45 7 36 36 NW 6 9 29.97 1015 10 16 N/A
3:15 pm 15:15 Sunny 73 23 41 5 31 31 WSW 3 6 29.97 1015 10 16 N/A
3:35 pm 15:35 Sunny 73 23 43 6 33 33 NNW 8 13 29.94 1014 10 16 N/A
3:55 pm 15:55 Sunny 73 23 43 6 33 33 WNW 5 7 29.94 1014 10 16 N/A
4:15 pm 16:15 Sunny 73 23 41 5 31 31 N N/A 29.94 1014 10 16 N/A
4:35 pm 16:35 Sunny 77 25 43 6 30 30 N N/A 29.94 1014 10 16 N/A
4:55 pm 16:55 Sunny 75 24 43 6 31 31 NW 3 6 29.94 1014 10 16 N/A
5:15 pm 17:15 Partly Cloudy 75 24 43 6 31 31 N N/A 29.94 1014 10 16 N/A
5:35 pm 17:35 Mostly Cloudy 73 23 43 6 33 33 N N/A 29.94 1014 10 16 N/A
5:55 pm 17:55 Mostly Cloudy 73 23 43 6 33 33 ENE 6 9 29.94 1014 10 16 N/A
6:15 pm 18:15 Partly Cloudy 73 23 43 6 33 33 ENE 7 11 29.94 1014 10 16 N/A
6:35 pm 18:35 Sunny 73 23 43 6 33 33 ENE 3 6 29.94 1014 10 16 N/A
6:55 pm 18:55 Sunny 72 22 43 6 36 36 ENE 5 7 29.94 1014 10 16 N/A
7:15 pm 19:15 Sunny 72 22 43 6 36 36 ENE 5 7 29.94 1014 10 16 N/A
7:35 pm 19:35 Sunny 72 22 43 6 36 36 ENE 6 9 29.97 1015 10 16 N/A
7:55 pm 19:55 Partly Cloudy 70 21 43 6 38 38 ENE 5 7 29.97 1015 10 16 N/A
8:15 pm 20:15 Mostly Cloudy 68 20 43 6 40 40 ENE 6 9 29.97 1015 10 16 N/A
8:35 pm 20:35 Cloudy 68 20 45 7 43 43 ENE 7 11 29.97 1015 10 16 N/A
8:55 pm 20:55 Cloudy 68 20 45 7 43 43 NE 7 11 30.00 1016 10 16 N/A
9:15 pm 21:15 Cloudy 66 19 45 7 46 46 NE 6 9 30.00 1016 10 16 N/A
9:35 pm 21:35 Cloudy 64 18 45 7 49 49 NE 6 9 30.00 1016 10 16 N/A
9:55 pm 21:55 Cloudy 64 18 45 7 49 49 NE 3 6 30.00 1016 10 16 N/A
10:15 pm 22:15 Cloudy 64 18 45 7 49 49 NE 3 6 30.00 1016 10 16 N/A
10:35 pm 22:35 Cloudy 64 18 45 7 49 49 ENE 3 6 30.00 1016 10 16 N/A
10:55 pm 22:55 Cloudy 64 18 45 7 49 49 ENE 3 6 30.00 1016 10 16 N/A
11:15 pm 23:15 Mostly Cloudy 63 17 45 7 52 52 NE 5 7 30.00 1016 10 16 N/A
11:35 pm 23:35 Mostly Cloudy 63 17 45 7 52 52 ENE 3 6 30.00 1016 10 16 N/A
11:55 pm 23:55 Mostly Cloudy 63 17 46 8 56 56 ENE 3 6 30.00 1016 10 16 N/A

Powered by AerisWeather